This is the latest recevied weather packets stored in our database for station/object VA3ZFM-10. If no packets are shown the sender has not sent any weather packets the latest 10 day(s).
| Time | Temp. | Humidity | Pressure | Rain* | Wind** | Luminosity | Snow |
|---|---|---|---|---|---|---|---|
| 1777740233 | 4.44° C | 62% | 1012 hPa | 0 mm | - | - | - |
| 1777739929 | 4.44° C | 62% | 1012.1 hPa | 0 mm | - | - | - |
| 1777739626 | 4.44° C | 61% | 1012.2 hPa | 0 mm | - | - | - |
| 1777739324 | 5° C | 62% | 1012.1 hPa | 0 mm | - | - | - |
| 1777739020 | 4.44° C | 61% | 1012.1 hPa | 0 mm | - | - | - |
| 1777738717 | 4.44° C | 64% | 1012.2 hPa | 0 mm | - | - | - |
| 1777738413 | 3.89° C | 66% | 1012.3 hPa | 0 mm | - | - | - |
| 1777738111 | 4.44° C | 65% | 1012.3 hPa | 0 mm | - | - | - |
| 1777737810 | 4.44° C | 67% | 1012.4 hPa | 0 mm | - | - | - |
| 1777737508 | 4.44° C | 66% | 1012.2 hPa | 0 mm | - | - | - |
| 1777737206 | 3.89° C | 68% | 1012.5 hPa | 0 mm | - | - | - |
| 1777736901 | 2.78° C | 69% | 1012.5 hPa | 0 mm | - | - | - |
| 1777736287 | 2.78° C | 73% | 1012.6 hPa | 0 mm | - | - | - |
| 1777735984 | 2.78° C | 75% | 1012.5 hPa | 0 mm | - | - | - |
| 1777735681 | 2.78° C | 75% | 1012.6 hPa | 0 mm | - | - | - |
| 1777735379 | 3.33° C | 77% | 1012.6 hPa | 0 mm | - | - | - |
| 1777735076 | 2.78° C | 76% | 1012.6 hPa | 0 mm | - | - | - |
| 1777734773 | 2.78° C | 78% | 1012.8 hPa | 0 mm | - | - | - |
| 1777734471 | 3.33° C | 78% | 1012.8 hPa | 0 mm | - | - | - |
| 1777734167 | 3.33° C | 78% | 1012.3 hPa | 0 mm | - | - | - |
| 1777733863 | 2.78° C | 78% | 1012.4 hPa | 0 mm | - | - | - |
| 1777733560 | 2.78° C | 79% | 1012.5 hPa | 0 mm | - | - | - |
| 1777733256 | 2.78° C | 77% | 1012.5 hPa | 0 mm | - | - | - |
| 1777732953 | 2.78° C | 76% | 1012.8 hPa | 0 mm | - | - | - |
| 1777732649 | 2.78° C | 75% | 1012.8 hPa | 0 mm | - | - | - |
* Rain latest hour (hover to see other rain measurements)
** Current wind speed in m/s (hover to see current wind gust speed)